McAlester, OK

9:43 PM CST on November 11, 2019 (GMT -0600)
McAlester Regional

Weather History for KMLC - August, 2019

Change the Weather History Date:

Monday, August 26, 2019

  Actual Average Record
Temperature  
Mean Temperature 84 °F -  
Max Temperature 96 °F 93 °F 107 °F (1963)
Min Temperature 73 °F 69 °F 54 °F (1962)
Cooling Degree Days 20    
Growing Degree Days 34 (Base 50)    
Moisture  
Dew Point 74 °F    
Average Humidity 72    
Maximum Humidity 91    
Minimum Humidity 51    
Precipitation  
Precipitation 0.00 in - - ()
Sea Level Pressure  
Sea Level Pressure 29.73 in    
Wind  
Wind Speed 6 mph (South)    
Max Wind Speed 13 mph    
Max Gust Speed 20 mph    
Visibility 10 miles    
Events      
Averages and records for this station are not official NWS values.
T = Trace of Precipitation, MM = Missing Value Source: NWS Daily Summary

Daily Weather History Graph

Daily Weather History Graph

Search for Another Location

Airport or City:

Astronomy

Aug. 26, 2019 Rise Set
Actual Time 6:51 AM CDT 7:57 PM CDT
Civil Twilight 6:25 AM CDT 8:23 PM CDT
Nautical Twilight 5:54 AM CDT 8:54 PM CDT
Astronomical Twilight 5:22 AM CDT 9:27 PM CDT
Moon 2:25 AM CDT (8/26) 5:13 PM CDT (8/26)
Length of Visible Light 13h 58m
Length of Day
13h 06m
Waning Crescent, 19% of the Moon is Illuminated
Aug 26
Waning Crescent
Aug 30
New
Sep 5
First Quarter
Sep 13
Full
Sep 21
Last Quarter

Hourly Weather History & Observations

Time (CDT) Temp. Heat Index Dew Point Humidity Pressure Visibility Wind Dir Wind Speed Gust Speed Precip Events Conditions
12:53 AM 73.9 °F - 70.0 °F 87% 29.78 in 10.0 mi Variable 4.6 mph - N/A   Clear
1:53 AM 75.0 °F - 71.1 °F 87% 29.77 in 10.0 mi Calm Calm - N/A   Clear
2:53 AM 75.9 °F - 72.0 °F 87% 29.75 in 10.0 mi SSE 4.6 mph - N/A   Clear
3:53 AM 75.9 °F - 73.0 °F 91% 29.75 in 10.0 mi SSE 5.8 mph - N/A   Scattered Clouds
4:53 AM 75.9 °F - 73.0 °F 91% 29.75 in 10.0 mi SSE 3.5 mph - N/A   Mostly Cloudy
5:53 AM 75.9 °F - 73.0 °F 91% 29.75 in 10.0 mi SSE 4.6 mph - N/A   Clear
6:53 AM 75.9 °F - 73.0 °F 91% 29.75 in 10.0 mi South 5.8 mph - N/A   Clear
7:53 AM 77.0 °F - 73.9 °F 90% 29.74 in 10.0 mi SSE 6.9 mph - N/A   Clear
8:24 AM 79.0 °F - 73.9 °F 84% 29.77 in 10.0 mi Variable 6.9 mph 16.1 mph N/A   Partly Cloudy
8:53 AM 80.1 °F 85.1 °F 75.0 °F 85% 29.74 in 10.0 mi Variable 6.9 mph 17.3 mph N/A   Scattered Clouds
9:53 AM 82.9 °F 90.2 °F 75.0 °F 77% 29.75 in 10.0 mi SSW 9.2 mph - N/A   Partly Cloudy
10:53 AM 86.0 °F 96.0 °F 75.9 °F 72% 29.75 in 10.0 mi South 10.4 mph 17.3 mph N/A   Clear
11:53 AM 90.0 °F 101.3 °F 75.9 °F 63% 29.74 in 10.0 mi South 12.7 mph - N/A   Clear
12:53 PM 93.0 °F 105.3 °F 75.9 °F 57% 29.73 in 10.0 mi SSW 9.2 mph 19.6 mph N/A   Clear
1:53 PM 93.0 °F 105.3 °F 75.9 °F 57% 29.71 in 10.0 mi South 11.5 mph 18.4 mph N/A   Clear
2:53 PM 95.0 °F 108.2 °F 75.9 °F 54% 29.71 in 10.0 mi SSW 10.4 mph 17.3 mph N/A   Partly Cloudy
3:53 PM 96.1 °F 108.6 °F 75.0 °F 51% 29.69 in 10.0 mi South 8.1 mph 17.3 mph N/A   Partly Cloudy
4:53 PM 96.1 °F 108.6 °F 75.0 °F 51% 29.68 in 10.0 mi Variable 5.8 mph - N/A   Partly Cloudy
5:53 PM 95.0 °F 106.7 °F 75.0 °F 52% 29.68 in 10.0 mi Variable 5.8 mph - N/A   Clear
6:53 PM 93.0 °F 103.2 °F 73.9 °F 54% 29.68 in 10.0 mi Variable 5.8 mph - N/A   Clear
7:53 PM 90.0 °F 97.9 °F 73.0 °F 57% 29.70 in 10.0 mi SSE 4.6 mph - N/A   Clear
8:53 PM 88.0 °F 95.6 °F 73.0 °F 61% 29.71 in 10.0 mi SE 3.5 mph - N/A   Clear
9:53 PM 82.9 °F 89.4 °F 73.9 °F 74% 29.75 in 10.0 mi SSE 3.5 mph - N/A   Clear
10:53 PM 84.9 °F 91.4 °F 73.0 °F 67% 29.77 in 10.0 mi South 4.6 mph - N/A   Clear
11:53 PM 86.0 °F 93.0 °F 73.0 °F 65% 29.77 in 10.0 mi South 4.6 mph - N/A   Clear